Weather reports worldwide

Advertisment
Mona Airfield, United Kingdom (3301): temperature & dewpoint: 04.12.2018 09:00:00 - 10.12.2018 09:00:00 (GMT)Mona Airfield, United Kingdom (3301): wind speed & gusts: 04.12.2018 09:00:00 - 10.12.2018 09:00:00 (GMT)Mona Airfield, United Kingdom (3301): wind direction: 04.12.2018 09:00:00 - 10.12.2018 09:00:00 (GMT)Mona Airfield, United Kingdom (3301): reduced air pressure: 04.12.2018 09:00:00 - 10.12.2018 09:00:00 (GMT)Mona Airfield, United Kingdom (3301): visibility: 04.12.2018 09:00:00 - 10.12.2018 09:00:00 (GMT)Mona Airfield, United Kingdom (3301): precipitation: 04.12.2018 09:00:00 - 10.12.2018 09:00:00 (GMT)
Date & Time tt [°C] td [°C] ff [km/h] ff [kn] fx [km/h] fx [kn] dd ppp [hPa] vv [km] rr [mm]
10.12.2018 09:00:00 7,1 5,4 9 5 - - W 1027,7 15 0,0
10.12.2018 08:00:00 7,2 5,5 11 6 - - W 1027,3 15 0,0
10.12.2018 07:00:00 7,2 5,4 13 7 - - W 1026,9 15 0,0
10.12.2018 06:00:00 6,3 4,8 8 4 - - W 1026,6 14 0,0
10.12.2018 05:00:00 7,3 5,5 18 10 - - W 1026,1 14 0,0
10.12.2018 04:00:00 7,4 5,7 16 9 - - WNW 1025,6 15 0,0
10.12.2018 03:00:00 7,6 5,6 21 11 - - W 1025,2 16 0,0
10.12.2018 02:00:00 7,8 5,9 18 10 - - W 1024,7 15 0,0
10.12.2018 01:00:00 7,8 5,8 18 10 - - WNW 1024,7 18 0,0
10.12.2018 00:00:00 7,7 6,0 15 8 - - W 1023,9 17 0,0
09.12.2018 23:00:00 7,9 6,0 22 12 - - W 1023,1 17 0,0
09.12.2018 22:00:00 7,8 6,3 18 10 - - W 1022,6 4,2 0,2
09.12.2018 21:00:00 8,3 6,1 22 12 - - W 1021,9 17 0,0
09.12.2018 20:00:00 8,3 6,2 18 10 - - W 1021,4 20 0,0
09.12.2018 19:00:00 8,0 6,0 22 12 - - W 1020,5 19 0,4
09.12.2018 18:00:00 8,0 6,4 15 8 - - WNW 1019,7 2,8 0,2
09.12.2018 17:00:00 8,4 5,8 26 14 - - WNW 1018,3 22 0,0
09.12.2018 16:00:00 8,7 6,4 21 11 - - WNW 1017,2 19 0,0
09.12.2018 15:00:00 8,7 6,7 21 11 - - NW 1016,2 18 0,0
09.12.2018 14:00:00 8,9 6,3 22 12 - - WNW 1015,2 21 0,0
09.12.2018 13:00:00 9,7 7,1 24 13 - - WNW 1014,0 19 0,0
09.12.2018 12:00:00 9,2 6,7 26 14 - - WNW 1013,0 20 0,2
09.12.2018 11:00:00 9,2 6,1 22 12 - - WNW 1012,2 23 0,0
09.12.2018 10:00:00 8,9 6,4 24 13 - - NW 1010,4 20 0,0
09.12.2018 09:00:00 8,1 6,1 18 10 - - NW 1008,6 17 0,0
09.12.2018 08:00:00 7,7 5,6 18 10 - - NW 1006,2 20 0,0
09.12.2018 07:00:00 8,5 6,2 24 13 52 28 NW 1003,7 21 0,0
09.12.2018 06:00:00 8,7 6,3 31 17 52 28 WNW 1001,5 20 0,0
09.12.2018 05:00:00 8,6 7,0 31 17 52 28 WNW 999,6 7 0,6
09.12.2018 04:00:00 8,9 6,8 31 17 54 29 W 998,1 17 0,4
09.12.2018 03:00:00 8,3 7,1 31 17 55 30 W 997,0 4,7 0,8
09.12.2018 02:00:00 9,3 6,1 35 19 54 29 W 996,4 18 0,0
09.12.2018 01:00:00 8,7 6,7 31 17 50 27 WSW 996,1 13 0,4
09.12.2018 00:00:00 9,4 5,6 29 16 54 29 WSW 996,5 17 0,0
08.12.2018 23:00:00 9,2 6,0 29 16 57 31 WSW 996,3 13 0,0
08.12.2018 22:00:00 9,3 6,0 31 17 55 30 WSW 996,3 12 0,0
08.12.2018 21:00:00 9,3 5,9 31 17 55 30 W 996,1 12 0,0
08.12.2018 20:00:00 9,6 5,5 39 21 59 32 W 995,8 16 0,0
08.12.2018 19:00:00 9,5 6,2 29 16 63 34 W 995,8 14 0,0
08.12.2018 18:00:00 9,6 5,9 34 18 55 30 W 996,0 14 0,0
08.12.2018 17:00:00 9,3 5,7 29 16 65 35 W 995,9 15 0,0
08.12.2018 16:00:00 9,9 5,7 35 19 61 33 W 995,4 14 0,0
08.12.2018 15:00:00 10,3 6,2 39 21 59 32 WSW 995,1 14 0,0
08.12.2018 14:00:00 9,0 7,4 28 15 65 35 WSW 995,5 13 7,2
08.12.2018 13:00:00 10,2 8,9 31 17 50 27 SW 996,1 6 0,0
08.12.2018 12:00:00 9,6 9,2 35 19 50 27 SW 997,6 8 1,2
08.12.2018 11:00:00 9,0 7,5 35 19 54 29 SW 999,4 3,8 0,2
08.12.2018 10:00:00 9,2 5,9 37 20 50 27 SW 1001,0 14 0,0
08.12.2018 09:00:00 9,0 5,6 34 18 50 27 WSW 1002,0 15 0,0
08.12.2018 08:00:00 9,1 4,8 31 17 59 32 W 1002,4 14 0,0
08.12.2018 07:00:00 9,5 4,5 37 20 68 37 W 1002,1 17 0,0
08.12.2018 06:00:00 9,6 5,4 37 20 68 37 W 1001,9 14 0,0
08.12.2018 05:00:00 9,5 5,5 39 21 63 34 W 1001,3 14 0,0
08.12.2018 04:00:00 9,8 5,4 37 20 68 37 W 1000,7 14 0,0
08.12.2018 03:00:00 9,9 5,4 42 23 80 43 W 1000,4 14 0,0
08.12.2018 02:00:00 10,0 5,0 41 22 74 40 W 999,7 14 0,0
08.12.2018 01:00:00 9,8 5,1 46 25 70 38 WSW 999,1 15 0,0
08.12.2018 00:00:00 9,6 5,0 42 23 68 37 WSW 998,8 15 0,0
07.12.2018 23:00:00 9,3 5,0 41 22 68 37 WSW 998,9 13 0,0
07.12.2018 22:00:00 8,9 4,8 42 23 67 36 WSW 999,0 15 0,0
07.12.2018 21:00:00 8,8 4,9 37 20 57 31 WSW 999,3 15 0,0
07.12.2018 20:00:00 8,2 4,8 39 21 61 33 WSW 999,3 15 0,0
07.12.2018 19:00:00 8,1 4,4 39 21 59 32 WSW 999,3 16 0,0
07.12.2018 18:00:00 7,7 3,6 41 22 57 31 WSW 999,2 17 0,0
07.12.2018 17:00:00 7,3 2,8 35 19 52 28 WSW 999,2 16 0,0
07.12.2018 16:00:00 7,0 2,5 35 19 57 31 WSW 998,9 18 0,0
07.12.2018 15:00:00 7,3 2,8 31 17 57 31 W 998,4 18 0,0
07.12.2018 14:00:00 7,9 2,6 35 19 61 33 W 998,2 20 0,0
07.12.2018 13:00:00 8,3 2,5 35 19 57 31 WSW 998,1 17 0,0
07.12.2018 12:00:00 8,2 2,8 35 19 57 31 WSW 998,3 17 0,0
07.12.2018 11:00:00 8,2 2,1 37 20 55 30 W 998,4 17 0,0
07.12.2018 10:00:00 8,4 2,3 31 17 50 27 W 998,5 17 0,0
07.12.2018 09:00:00 8,3 3,0 29 16 52 28 W 997,9 15 0,0
07.12.2018 08:00:00 8,7 3,8 31 17 48 26 W 997,9 14 0,0
07.12.2018 07:00:00 9,3 4,3 31 17 46 25 W 997,6 15 0,0
07.12.2018 06:00:00 9,7 7,3 24 13 - - W 997,2 12 0,2
07.12.2018 05:00:00 10,8 10,4 35 19 63 34 WSW 996,9 5 2,2
07.12.2018 04:00:00 11,9 11,7 50 27 65 35 SSW 996,8 4,5 2,0
07.12.2018 03:00:00 12,0 11,7 44 24 65 35 SSW 998,0 6 0,8
07.12.2018 02:00:00 11,9 11,7 46 25 63 34 SSW 999,9 5 4,6
07.12.2018 01:00:00 11,7 11,5 48 26 65 35 SSW 1001,2 4,4 1,0
07.12.2018 00:00:00 11,5 11,3 46 25 63 34 S 1002,5 3,7 0,4
06.12.2018 23:00:00 11,2 11,0 41 22 52 28 SSW 1003,9 13 0,0
06.12.2018 22:00:00 11,2 11,1 41 22 55 30 SSW 1005,4 9 0,0
06.12.2018 21:00:00 11,1 11,0 24 13 - - SSW 1006,9 0,2 0,0
06.12.2018 20:00:00 11,2 11,1 28 15 - - SW 1008,1 0,4 0,0
06.12.2018 19:00:00 11,4 11,3 24 13 - - WSW 1008,6 0,3 0,0
06.12.2018 18:00:00 11,5 11,4 22 12 - - SW 1008,8 0,2 0,2
06.12.2018 17:00:00 11,5 11,4 26 14 - - SW 1008,6 0,5 0,0
06.12.2018 16:00:00 11,6 11,5 28 15 - - SW 1008,6 0,9 0,0
06.12.2018 15:00:00 11,7 11,6 31 17 46 25 SW 1008,3 3,4 0,0
06.12.2018 14:00:00 11,8 11,6 35 19 50 27 SW 1008,4 4,6 0,0
06.12.2018 13:00:00 11,8 11,5 37 20 52 28 SW 1008,4 4,9 0,2
06.12.2018 12:00:00 11,7 11,4 37 20 52 28 SW 1009,0 8 0,4
06.12.2018 11:00:00 11,5 11,2 39 21 59 32 SW 1009,0 9 0,0
06.12.2018 10:00:00 11,3 11,0 41 22 57 31 SSW 1008,8 10 0,2
06.12.2018 09:00:00 10,5 10,2 37 20 59 32 SSW 1008,5 8 1,2
06.12.2018 08:00:00 11,0 10,7 42 23 59 32 SSW 1008,8 7 0,8
06.12.2018 07:00:00 11,0 10,8 39 21 55 30 SSW 1008,8 11 0,0
06.12.2018 06:00:00 10,9 10,7 37 20 50 27 SSW 1008,9 16 0,0
06.12.2018 05:00:00 10,9 10,8 35 19 46 25 SSW 1009,2 3,2 0,0
06.12.2018 04:00:00 10,7 10,6 29 16 - - SSW 1009,7 5 0,0
06.12.2018 03:00:00 10,7 10,6 28 15 - - SSW 1009,8 4,5 0,0
06.12.2018 02:00:00 10,9 10,8 22 12 - - SSW 1009,4 4,5 0,0
06.12.2018 01:00:00 10,7 10,5 15 8 - - SSW 1009,9 2,8 0,0
06.12.2018 00:00:00 10,2 10,0 9 5 - - WSW 1010,4 3,8 0,0
05.12.2018 23:00:00 9,7 9,6 9 5 - - SW 1009,3 4,1 0,0
05.12.2018 22:00:00 9,9 9,7 9 5 - - WSW 1009,1 6 0,0
05.12.2018 21:00:00 10,0 9,9 15 8 - - W 1008,9 6 0,0
05.12.2018 20:00:00 10,0 9,9 9 5 - - W 1008,0 5 0,0
05.12.2018 19:00:00 10,5 10,4 15 8 - - W 1007,8 3,2 0,2
05.12.2018 18:00:00 10,8 10,7 13 7 - - W 1007,1 1,4 0,0
05.12.2018 17:00:00 10,9 10,8 15 8 - - W 1006,5 0,4 0,0
05.12.2018 16:00:00 11,4 11,2 15 8 - - SW 1005,5 0,2 0,0
05.12.2018 15:00:00 - - 21 11 - - SSW - 1,6 0,0
05.12.2018 14:00:00 - - 26 14 - - SSW - 3,8 0,0
05.12.2018 13:00:00 11,3 10,8 22 12 48 26 S 1005,3 23 0,2
05.12.2018 12:00:00 10,9 10,5 31 17 48 26 S 1005,9 4,9 0,0
05.12.2018 11:00:00 10,7 10,1 34 18 - - S 1006,7 9 0,2
05.12.2018 10:00:00 10,6 9,9 28 15 - - S 1007,6 14 1,8
05.12.2018 09:00:00 9,9 9,3 24 13 - - S 1008,5 7 1,4
05.12.2018 08:00:00 9,7 9,3 21 11 - - S 1009,2 10 1,8
05.12.2018 07:00:00 7,2 7,0 8 4 - - E 1009,9 7 1,8
05.12.2018 06:00:00 6,5 6,1 11 6 - - ENE 1011,1 3,5 1,2
05.12.2018 05:00:00 6,1 5,6 13 7 - - ENE 1011,9 11 1,4
05.12.2018 04:00:00 5,3 4,8 11 6 - - NE 1013,3 14 1,0
05.12.2018 03:00:00 4,9 4,0 11 6 - - ENE 1014,8 21 0,0
05.12.2018 02:00:00 4,5 3,6 9 5 - - ENE 1015,6 21 0,4
05.12.2018 01:00:00 4,2 3,1 8 4 - - ENE 1016,9 18 0,4
05.12.2018 00:00:00 4,8 2,5 5 3 - - ESE 1018,0 17 0,0
04.12.2018 23:00:00 4,8 2,5 13 7 - - SSE 1019,0 60 0,0
04.12.2018 22:00:00 4,3 2,4 11 6 - - S 1019,9 35 0,0
04.12.2018 21:00:00 5,1 3,0 22 12 - - S 1020,5 30 0,0
04.12.2018 20:00:00 5,6 3,4 21 11 - - S 1021,1 35 0,0
04.12.2018 19:00:00 6,4 4,9 16 9 - - S 1020,7 20 0,0
04.12.2018 18:00:00 6,2 4,8 15 8 - - S 1020,7 20 0,0
04.12.2018 17:00:00 6,2 5,0 16 9 - - S 1021,2 19 0,0
04.12.2018 16:00:00 6,2 4,9 15 8 - - S 1021,3 20 0,0
04.12.2018 15:00:00 6,5 5,3 11 6 - - S 1021,1 18 0,0
04.12.2018 14:00:00 6,7 5,4 11 6 - - S 1021,2 21 0,0
04.12.2018 13:00:00 6,7 5,3 8 4 - - S 1021,6 23 0,0
04.12.2018 12:00:00 5,9 4,8 5 3 - - S 1021,4 22 0,0
04.12.2018 11:00:00 4,3 3,4 5 3 - - SSW 1021,7 24 0,0
04.12.2018 10:00:00 4,2 3,5 4 2 - - SW 1021,1 30 0,0
04.12.2018 09:00:00 1,7 1,3 5 3 - - SSW 1020,9 29 0,0

tt = temperature
td = dewpoint
ff = wind speed
fx = gusts
dd = wind direction
ppp = reduced air pressure
vv = visibility
rr = precipitation

Next stations